Location: Gro� Glienicke
(52.4675°N, 13.1079°E)
Time: 02:39:15
(UTC+00:00)

NOSS 3-3 (A) - Pass Details

Date: 06 July 2020
Orbit: 825 x 1387 km, 63.4° (Epoch: 01 August)

Event Time Altitude Azimuth Distance (km) Brightness Sun altitude
Rises 21:33:01 0° 225° (SW) 3,450 6.7 -11.9°
Reaches altitude 10° 21:35:22 10° 226° (SW) 2,563 6.0 -12.0°
Maximum altitude 21:41:20 87° 315° (NW) 982 4.0 -12.4°
Drops below altitude 10° 21:48:13 10° 47° (NE) 2,933 6.8 -12.7°
Sets 21:51:04 0° 48° (NE) 3,981 7.5 -12.9°
